This demonstration page uses our WeatherBlox Daily Observations layout. Learn more.

Left ArrowRight Arrow

Hourly Observations for November 20, 2016

Temp ( °F °C ) Dew Point ( °F °C ) Humidity (%) Winds ( mph kmh ) Pressure ( in mb ) Visibility ( mi km ) Precip ( " mm )
12:15 am 00:15 Clear 25 -3.8 20 -6.5 82 82 SE 9 15 30.36 1028 10 16 N/A
12:35 am 00:35 Clear 26 -3.5 21 -6.1 82 82 SE 8 13 30.33 1027 10 16 N/A
12:55 am 00:55 Clear 25 -3.8 21 -6.3 83 83 SSE 9 15 30.33 1027 10 16 N/A
1:15 am 01:15 Clear 28 -2.4 22 -5.6 79 79 SSE 12 19 30.33 1027 10 16 N/A
1:35 am 01:35 Clear 29 -1.5 22 -5.5 74 74 SSE 13 20 30.27 1025 10 16 N/A
1:55 am 01:55 Clear 30 -1.2 22 -5.5 73 73 SSE 14 22 30.27 1025 10 16 N/A
2:15 am 02:15 Clear 30 -1 22 -5.5 72 72 SSE 12 19 30.27 1025 10 16 N/A
2:35 am 02:35 Clear 30 -1 22 -5.5 72 72 SSE 10 17 30.27 1025 10 16 N/A
2:55 am 02:55 Clear 29 -1.5 22 -5.5 74 74 SE 9 15 30.27 1025 10 16 N/A
3:15 am 03:15 Clear 28 -2.1 22 -5.7 77 77 SSE 9 15 30.30 1026 10 16 N/A
3:35 am 03:35 Clear 28 -2.2 22 -5.6 78 78 SSE 8 13 30.30 1026 10 16 N/A
3:55 am 03:55 Clear 28 -2 22 -5.5 77 77 SSE 9 15 30.27 1025 10 16 N/A
4:15 am 04:15 Clear 28 -2 22 -5.5 77 77 SSE 8 13 30.24 1024 10 16 N/A
4:35 am 04:35 Clear 30 -1.3 22 -5.4 74 74 SSE 10 17 30.24 1024 10 16 N/A
4:55 am 04:55 Clear 30 -1.1 22 -5.5 72 72 SSE 10 17 30.24 1024 10 16 N/A
5:15 am 05:15 Clear 29 -1.5 22 -5.5 74 74 SSE 9 15 30.24 1024 10 16 N/A
5:35 am 05:35 Clear 29 -1.7 22 -5.5 76 76 SSE 9 15 30.24 1024 10 16 N/A
5:55 am 05:55 Clear 29 -1.5 22 -5.6 74 74 SSE 9 15 30.24 1024 10 16 N/A
6:15 am 06:15 Clear 28 -2 22 -5.7 76 76 SSE 8 13 30.24 1024 10 16 N/A
6:35 am 06:35 Clear 28 -2.1 22 -5.6 77 77 SSE 7 11 30.24 1024 10 16 N/A
6:55 am 06:55 Clear 28 -2.5 22 -5.6 80 80 SSE 7 11 30.27 1025 10 16 N/A
7:15 am 07:15 Clear 28 -2.5 22 -5.6 80 80 SSE 8 13 30.27 1025 10 16 N/A
7:35 am 07:35 Sunny 28 -2.3 22 -5.5 79 79 SSE 6 9 30.24 1024 10 16 N/A
7:55 am 07:55 Sunny 28 -2.5 22 -5.7 79 79 SSE 5 7 30.27 1025 10 16 N/A
8:15 am 08:15 Sunny 27 -2.7 22 -5.6 81 81 SSE 6 9 30.27 1025 10 16 N/A
8:35 am 08:35 Sunny 28 -2.5 22 -5.5 80 80 SE 6 9 30.27 1025 10 16 N/A
8:55 am 08:55 Sunny 30 -1.1 23 -5 75 75 SSE 9 15 30.24 1024 10 16 N/A
9:15 am 09:15 Sunny 32 -0.1 24 -4.7 71 71 SSE 12 19 30.24 1024 10 16 N/A
9:35 am 09:35 Sunny 33 0.7 23 -4.9 66 66 S 8 13 30.24 1024 10 16 N/A
9:55 am 09:55 Sunny 35 1.5 23 -5 62 62 S 9 15 30.21 1023 10 16 N/A
10:15 am 10:15 Sunny 36 2.3 23 -5 59 59 S 9 15 30.21 1023 10 16 N/A
10:35 am 10:35 Sunny 37 2.9 23 -4.9 57 57 S 8 13 30.21 1023 10 16 N/A
10:55 am 10:55 Sunny 39 3.8 23 -4.9 53 53 SSW 7 11 30.21 1023 10 16 N/A
11:15 am 11:15 Sunny 40 4.4 24 -4.7 52 52 SSW 7 11 30.18 1022 10 16 N/A
11:35 am 11:35 Sunny 41 5 24 -4.5 51 51 SSW 6 9 30.18 1022 10 16 N/A
11:55 am 11:55 Sunny 42 5.6 24 -4.2 50 50 S 6 9 30.18 1022 10 16 N/A
12:15 pm 12:15 Sunny 44 6.4 24 -4.5 46 46 SW 5 7 30.15 1021 10 16 N/A
12:35 pm 12:35 Sunny 44 6.6 24 -4.6 45 45 S 8 13 30.15 1021 10 16 N/A
12:55 pm 12:55 Sunny 45 7.1 23 -4.8 43 43 SSW 7 11 30.12 1020 10 16 N/A
1:15 pm 13:15 Sunny 45 7.3 24 -4.6 43 43 SSW 6 9 30.09 1019 10 16 N/A
1:35 pm 13:35 Sunny 46 8 24 -4.5 41 41 SW 5 7 30.09 1019 10 16 N/A
1:55 pm 13:55 Sunny 47 8.5 24 -4.5 40 40 SSW 6 9 30.09 1019 10 16 N/A
2:15 pm 14:15 Sunny 48 9.1 24 -4.5 38 38 SSW 6 9 30.09 1019 10 16 N/A
2:35 pm 14:35 Sunny 48 9.1 24 -4.5 38 38 S 7 11 30.09 1019 10 16 N/A
2:55 pm 14:55 Sunny 49 9.3 23 -4.8 37 37 SSW 6 9 30.09 1019 10 16 N/A
3:15 pm 15:15 Sunny 49 9.5 24 -4.7 37 37 SW 5 7 30.09 1019 10 16 N/A
3:35 pm 15:35 Sunny 49 9.4 23 -4.9 36 36 N N/A 30.09 1019 10 16 N/A
3:55 pm 15:55 Sunny 49 9.5 24 -4.7 37 37 SSW 3 6 30.09 1019 10 16 N/A
4:15 pm 16:15 Sunny 49 9.3 24 -4.7 37 37 SSW 3 6 30.09 1019 10 16 N/A
4:35 pm 16:35 Sunny 48 9.1 24 -4.4 39 39 S 5 7 30.09 1019 10 16 N/A
4:55 pm 16:55 Sunny 47 8.5 25 -3.9 42 42 SSW 5 7 30.09 1019 10 16 N/A
5:15 pm 17:15 Sunny 46 7.5 25 -3.8 45 45 N N/A 30.09 1019 10 16 N/A
5:35 pm 17:35 Clear 41 5 24 -4.5 51 51 SSE 3 6 30.12 1020 10 16 N/A
5:55 pm 17:55 Clear 36 2.2 25 -3.8 65 65 ESE 6 9 30.15 1021 10 16 N/A
6:15 pm 18:15 Clear 36 2.1 26 -3.6 66 66 SSE 5 7 30.15 1021 10 16 N/A
6:35 pm 18:35 Clear 36 2.4 24 -4.3 62 62 SE 3 6 30.15 1021 10 16 N/A
6:55 pm 18:55 Clear 33 0.6 24 -4.4 70 70 SE 7 11 30.15 1021 10 16 N/A
7:15 pm 19:15 Clear 35 1.5 24 -4.3 66 66 SSE 6 9 30.15 1021 10 16 N/A
7:35 pm 19:35 Clear 36 2.2 24 -4.3 63 63 SSE 5 7 30.15 1021 10 16 N/A
7:55 pm 19:55 Clear 35 1.5 24 -4.5 65 65 SSE 5 7 30.15 1021 10 16 N/A
8:15 pm 20:15 Clear 34 1.1 24 -4.4 67 67 S 6 9 30.15 1021 10 16 N/A
8:35 pm 20:35 Clear 34 0.9 24 -4.5 68 68 S 7 11 30.15 1021 10 16 N/A
8:55 pm 20:55 Clear 34 1 25 -4 70 70 S 6 9 30.15 1021 10 16 N/A
9:15 pm 21:15 Clear 33 0.6 24 -4.4 70 70 S 5 7 30.15 1021 10 16 N/A
9:35 pm 21:35 Clear 33 0.6 24 -4.5 69 69 S 5 7 30.15 1021 10 16 N/A
9:55 pm 21:55 Clear 31 -0.6 24 -4.7 74 74 S 3 6 30.18 1022 10 16 N/A
10:15 pm 22:15 Clear 33 0.4 24 -4.2 72 72 S 5 7 30.15 1021 10 16 N/A
10:35 pm 22:35 Clear 33 0.6 24 -4.2 71 71 S 6 9 30.15 1021 10 16 N/A
10:55 pm 22:55 Clear 34 1.2 25 -4.1 68 68 S 5 7 30.15 1021 10 16 N/A
11:15 pm 23:15 Clear 34 1 24 -4.4 68 68 S 3 6 30.15 1021 10 16 N/A
11:35 pm 23:35 Clear 31 -0.5 23 -5 72 72 S 3 6 30.15 1021 10 16 N/A
11:55 pm 23:55 Clear 34 0.9 24 -4.2 69 69 S 6 9 30.12 1020 10 16 N/A

Powered by AerisWeather